Wind_Speed
31 33 36 36 35 42 45 46 48 48 45 43 41 43 42 41 40 40 34 27 25 26 24 16 32 34 51 43 40 37 34 33 32 32 28 25 24 23 19 18 19 17 15 15 14
37 37 38 40 39 42 48 47 50 49 47 46 44 44 46 44 44 43 39 36 29 26 22 22 23 23 27 53 43 41 38 37 35 32 32 28 25 23 21 19 19 17 17 16 13
41 42 41 40 43 43 48 51 51 52 50 48 47 46 47 48 50 48 44 42 40 32 28 34 27 25 28 48 50 42 39 39 38 34 33 30 27 24 23 22 19 18 17 16 14
47 46 45 43 43 45 47 53 54 54 53 51 50 48 49 49 52 51 49 46 44 39 34 37 36 27 29 36 46 52 43 41 39 37 34 33 30 26 25 23 22 20 20 19 17
53 51 48 46 45 44 47 51 57 56 57 54 53 51 53 53 51 51 52 49 46 43 41 42 41 30 28 30 27 44 49 45 42 40 37 34 34 29 25 25 24 22 20 20 20
63 58 51 49 47 48 47 49 54 57 60 58 56 55 54 55 54 55 54 52 49 47 44 42 42 33 31 32 26 25 53 49 46 45 41 38 37 31 28 26 27 25 22 20 20
55 55 51 53 50 49 50 49 50 56 60 60 59 57 54 55 53 54 55 55 52 49 44 43 43 37 36 26 25 24 47 54 50 46 44 42 40 34 32 29 28 27 24 22 22
29 26 43 48 53 51 51 51 49 51 57 60 60 59 56 57 56 54 54 56 54 52 50 47 46 46 33 34 30 26 35 46 54 52 48 46 40 38 36 33 29 28 26 26 25
19 21 20 30 50 53 52 52 51 49 52 57 59 60 59 57 56 55 53 55 55 54 52 49 49 49 38 38 33 32 34 34 34 51 48 47 41 41 39 35 32 30 29 29 27
15 15 17 16 35 51 52 53 53 51 50 52 56 59 60 58 57 55 55 54 56 56 54 51 48 48 44 41 42 41 36 38 31 32 43 49 45 44 40 39 36 34 31 30 30
12 14 16 14 21 39 51 53 54 52 51 50 51 55 58 59 58 56 54 54 54 56 56 56 52 48 48 42 43 42 40 39 36 33 31 33 38 49 43 43 38 39 37 36 34
10 13 12 12 14 17 40 51 53 54 52 51 50 51 55 53 55 56 54 53 52 52 54 55 53 51 49 48 47 47 45 43 40 38 36 38 37 41 36 38 38 44 41 41 39
11 12 10 11 13 14 24 43 52 54 53 52 51 49 51 50 54 54 53 53 51 51 52 53 53 53 53 52 49 47 49 48 45 42 42 39 42 42 42 35 34 33 41 45 43
8 9 8 9 10 14 16 29 46 54 53 53 52 49 48 47 48 51 51 53 52 50 50 53 53 52 51 51 52 52 49 50 49 47 46 43 44 43 42 40 38 38 37 43 47
7 7 8 8 10 13 16 20 34 50 50 53 54 52 48 47 47 47 47 49 51 50 49 49 49 51 52 52 50 52 50 51 49 50 49 47 46 46 42 44 45 40 38 40 44
3 3 4 4 6 10 12 16 25 42 46 47 54 53 50 50 47 46 45 46 46 48 48 49 49 49 51 51 51 51 50 46 43 45 48 51 48 54 47 45 46 43 41 40 41
6 2 0 1 2 5 9 13 20 35 45 43 50 53 52 51 48 47 45 45 45 47 48 46 46 46 47 50 52 53 56 53 48 45 49 47 48 55 51 47 46 46 45 46 44
11 4 4 6 3 3 1 5 15 18 33 40 44 51 53 53 51 47 46 44 43 43 44 45 44 45 46 46 48 52 53 55 54 47 46 47 45 46 48 45 45 47 47 44 45
12 9 6 5 6 4 3 5 9 10 15 34 36 46 51 53 52 48 48 46 43 42 43 44 44 44 44 44 45 48 48 46 46 47 45 45 41 37 41 43 42 42 45 48 49
11 8 5 5 3 3 8 3 6 5 8 11 21 35 44 49 51 52 48 48 46 43 42 42 40 39 41 42 42 45 45 46 47 49 48 47 45 43 40 36 36 36 34 37 39
10 9 5 4 5 4 5 14 8 6 6 9 15 16 29 40 47 49 49 48 47 45 43 41 41 40 40 41 39 42 43 46 48 51 51 50 48 46 42 36 37 38 34 34 32
7 7 4 2 5 2 3 8 6 1 3 12 12 7 13 28 44 45 47 47 46 45 44 42 41 42 39 43 40 38 40 41 47 48 49 51 49 48 43 38 34 35 39 35 35
9 7 3 2 4 7 4 6 5 5 2 2 9 8 3 19 36 45 48 46 44 38 40 39 43 42 39 38 37 35 34 32 32 39 45 48 48 44 41 41 40 38 35 36 40
11 11 5 1 5 4 3 3 4 5 4 4 4 9 10 6 25 41 48 46 43 35 37 41 42 40 35 34 36 36 32 31 36 36 36 36 37 39 38 37 37 39 40 41 43
8 11 6 3 3 5 4 6 7 7 5 7 4 9 10 5 9 34 40 41 45 42 45 43 38 36 37 41 40 41 38 37 36 34 34 31 32 36 37 36 36 36 37 40 38
3 7 8 2 2 4 7 9 10 9 6 13 11 11 3 8 7 27 38 39 43 44 45 44 42 39 35 37 43 44 45 46 44 39 36 38 36 36 35 35 34 33 33 33 36
4 2 6 4 1 3 4 6 17 10 5 11 10 13 10 17 14 10 37 35 32 36 40 39 39 48 44 41 39 41 38 39 39 44 47 35 34 35 38 36 33 33 35 35 36
Wind_Direction
256 251 249 247 240 231 220 216 216 219 225 224 220 217 215 213 213 214 217 215 221 230 253 243 213 210 206 210 206 200 195 199 196 189 188 189 190 190 194 195 189 189 186 183 180
251 248 245 241 235 235 223 216 215 215 218 222 219 216 213 211 211 210 211 205 211 224 217 201 196 212 221 209 211 205 197 203 201 197 191 193 196 195 195 201 201 193 191 194 189
255 247 244 239 232 229 227 218 216 213 212 218 218 217 215 211 210 209 208 207 203 214 201 197 209 218 229 216 205 212 201 205 204 202 200 195 200 200 203 204 207 204 197 201 202
257 247 242 239 234 225 227 224 217 213 210 213 216 213 211 206 209 206 210 206 208 207 204 202 208 213 226 224 214 207 211 208 209 206 205 201 203 205 206 208 211 215 205 204 206
250 249 241 237 234 230 222 224 219 214 210 208 212 211 208 208 210 206 210 212 208 206 205 207 210 217 225 223 211 216 209 211 212 211 207 206 208 210 211 212 215 219 219 216 212
250 250 240 235 232 229 226 221 221 216 212 208 209 210 210 211 212 210 209 213 213 211 208 210 209 213 214 203 210 220 219 210 215 214 211 209 211 209 214 212 215 221 223 223 224
256 256 246 236 230 229 224 224 221 219 215 211 206 209 210 212 211 210 208 209 212 216 215 215 210 205 207 204 223 231 213 209 213 217 216 215 214 210 214 214 215 221 224 225 229
276 276 252 236 231 227 225 222 221 220 218 215 207 206 207 211 211 211 209 209 211 214 214 220 214 208 214 205 214 219 206 218 216 213 219 219 216 213 216 218 218 219 226 230 230
285 279 272 243 229 227 225 221 221 219 220 217 212 205 207 209 212 211 209 208 213 213 214 218 216 217 212 210 205 224 217 214 213 217 221 226 218 221 218 220 223 223 224 233 237
291 279 267 257 227 226 224 220 220 219 219 219 216 209 204 208 210 211 211 209 212 214 216 219 221 217 217 218 213 213 215 213 216 218 224 229 227 226 227 226 226 227 228 231 235
285 272 263 256 233 224 223 222 219 219 218 219 215 214 208 209 210 212 211 213 213 215 218 220 221 222 219 222 222 220 225 225 228 230 228 224 226 226 227 228 225 229 227 229 233
276 268 261 246 245 237 220 220 219 218 219 218 217 215 212 210 211 211 212 213 213 215 218 217 219 222 224 225 225 221 226 231 230 232 232 228 228 230 228 229 234 232 232 230 234
273 274 263 250 239 243 224 216 218 218 217 216 217 216 216 211 211 212 214 215 215 215 215 218 220 223 224 226 230 230 228 235 237 237 233 234 234 234 231 233 239 238 238 234 236
285 275 259 239 241 240 232 217 213 217 217 216 216 218 217 214 214 212 213 217 218 217 216 219 221 222 228 227 228 230 232 235 240 243 245 240 240 233 240 236 240 242 241 241 241
295 278 260 253 238 236 231 221 211 211 215 215 215 213 216 216 216 215 214 215 218 219 220 221 221 222 223 226 229 232 232 234 238 244 246 244 247 235 239 239 244 244 242 245 245
358 274 264 237 229 223 216 217 211 207 211 214 215 215 217 217 217 217 217 216 217 218 221 220 220 221 222 225 226 228 228 231 236 241 246 243 245 245 240 244 242 239 242 249 248
67 66 348 310 263 233 207 209 209 207 206 208 214 214 215 218 218 220 218 217 218 220 218 221 223 224 223 224 226 228 228 235 242 245 244 244 248 246 248 246 246 249 254 255 254
73 38 70 65 101 83 157 232 225 209 205 206 212 215 215 215 219 219 222 220 219 221 222 221 221 225 226 226 227 229 232 237 240 245 247 248 248 248 252 253 250 254 256 257 256
77 64 62 65 88 71 204 222 148 155 192 207 211 216 216 216 218 219 221 222 221 222 224 226 222 225 228 228 230 231 230 230 235 238 239 243 245 246 246 249 251 251 252 254 256
65 36 39 69 131 63 359 206 179 165 166 184 213 216 215 217 217 217 219 222 222 224 224 226 226 227 230 230 229 230 232 229 228 233 239 239 240 247 251 254 257 257 255 254 255
53 38 19 84 176 312 10 135 201 264 219 208 177 199 214 215 216 219 219 221 223 224 227 228 230 229 232 232 235 238 234 233 231 234 239 245 246 247 250 252 260 261 259 255 256
33 33 7 262 201 189 81 176 183 124 195 200 195 209 195 212 213 214 216 219 221 223 223 227 230 230 234 236 234 237 238 238 236 238 240 245 249 250 251 257 261 262 263 265 262
24 13 359 140 178 176 153 118 174 210 275 276 232 230 236 218 214 212 213 213 220 218 219 216 227 232 229 232 238 241 239 242 243 242 244 247 251 255 257 258 258 260 265 266 265
33 15 339 205 150 164 170 155 178 186 300 168 237 221 195 272 217 212 212 210 210 211 204 213 222 229 223 223 219 224 225 225 221 235 243 246 248 250 252 255 258 258 262 264 257
32 21 13 53 136 161 164 166 157 119 169 156 171 210 237 200 245 211 209 209 208 199 199 209 216 221 221 215 218 224 223 221 224 236 237 233 237 245 249 250 251 252 250 252 255
32 1 16 69 133 188 192 187 155 184 162 135 117 140 164 196 193 214 207 212 208 213 222 222 221 223 223 225 229 234 234 232 230 230 231 233 242 247 249 250 251 253 258 263 265
240 289 339 28 8 306 290 194 161 177 99 127 118 130 155 173 141 194 202 205 210 219 223 225 227 229 233 234 235 236 235 237 240 241 237 245 249 248 252 252 258 260 259 261 266
Height
5688 5688 5689 5690 5692 5694 5698 5704 5711 5717 5725 5732 5739 5745 5752 5759 5765 5771 5777 5782 5785 5788 5793 5800 5804 5810 5817 5822 5827 5831 5837 5841 5845 5847 5853 5858 5860 5863 5866 5869 5871 5873 5877 5878 5879
5678 5676 5677 5679 5682 5685 5689 5693 5700 5706 5715 5723 5730 5736 5743 5751 5758 5764 5771 5777 5781 5785 5791 5795 5800 5805 5810 5816 5823 5827 5833 5837 5841 5846 5849 5855 5858 5861 5864 5866 5869 5872 5874 5877 5879
5665 5665 5665 5667 5670 5675 5679 5683 5687 5696 5703 5713 5721 5728 5735 5742 5750 5756 5762 5770 5777 5780 5787 5793 5797 5802 5807 5812 5817 5824 5829 5833 5837 5843 5847 5851 5856 5858 5861 5864 5868 5871 5872 5875 5877
5650 5649 5651 5654 5658 5662 5668 5672 5677 5683 5691 5701 5711 5719 5725 5733 5741 5748 5755 5761 5770 5774 5782 5786 5792 5797 5802 5807 5812 5819 5825 5829 5833 5838 5845 5848 5852 5856 5858 5863 5866 5868 5869 5872 5875
5631 5632 5636 5639 5645 5650 5655 5660 5666 5672 5680 5688 5700 5709 5716 5724 5731 5739 5748 5754 5761 5768 5774 5780 5786 5792 5796 5801 5805 5812 5820 5824 5828 5834 5840 5844 5848 5852 5856 5860 5863 5865 5867 5870 5873
5609 5613 5620 5625 5631 5636 5642 5649 5655 5662 5669 5677 5687 5697 5708 5716 5722 5731 5738 5747 5754 5761 5766 5773 5780 5786 5792 5796 5801 5806 5811 5818 5823 5829 5833 5839 5843 5848 5852 5856 5859 5862 5864 5866 5870
5593 5596 5604 5611 5617 5623 5630 5637 5644 5651 5658 5666 5676 5686 5697 5705 5712 5720 5730 5737 5745 5753 5760 5767 5774 5780 5786 5790 5794 5798 5802 5807 5815 5822 5827 5833 5839 5844 5846 5851 5856 5858 5860 5861 5865
5585 5584 5588 5596 5604 5611 5618 5625 5633 5641 5648 5657 5665 5676 5687 5696 5704 5713 5721 5729 5737 5745 5752 5759 5767 5772 5778 5784 5790 5795 5798 5803 5810 5816 5822 5827 5835 5839 5842 5847 5851 5854 5856 5858 5860
5582 5580 5579 5582 5591 5600 5607 5616 5622 5631 5639 5646 5657 5666 5677 5687 5696 5704 5712 5721 5729 5737 5744 5751 5759 5764 5771 5779 5785 5788 5796 5801 5803 5810 5816 5820 5830 5832 5838 5842 5846 5850 5852 5854 5856
5578 5576 5575 5576 5580 5588 5598 5606 5613 5622 5630 5638 5647 5658 5668 5677 5687 5696 5704 5712 5722 5728 5736 5745 5752 5758 5766 5772 5778 5784 5790 5796 5799 5806 5808 5812 5822 5825 5832 5836 5840 5843 5847 5850 5851
5574 5573 5572 5573 5574 5578 5589 5598 5608 5616 5623 5631 5640 5648 5657 5667 5677 5687 5695 5704 5713 5720 5728 5737 5745 5752 5762 5768 5773 5778 5782 5787 5792 5797 5800 5806 5812 5817 5821 5827 5832 5836 5839 5842 5844
5571 5571 5570 5571 5572 5574 5579 5588 5597 5606 5614 5623 5632 5640 5648 5657 5669 5679 5688 5698 5706 5714 5722 5730 5737 5744 5752 5758 5764 5770 5775 5781 5786 5790 5794 5799 5806 5808 5812 5817 5822 5827 5831 5833 5836
5569 5569 5568 5569 5570 5571 5573 5580 5589 5596 5606 5616 5625 5634 5642 5653 5661 5670 5680 5689 5697 5706 5714 5722 5730 5736 5744 5751 5757 5763 5769 5774 5780 5784 5787 5792 5796 5801 5806 5811 5816 5819 5824 5827 5829
5566 5567 5566 5567 5569 5569 5570 5573 5580 5590 5601 5610 5618 5627 5637 5645 5655 5663 5672 5681 5690 5700 5707 5715 5723 5729 5736 5743 5749 5755 5762 5767 5771 5775 5779 5786 5788 5796 5799 5804 5808 5812 5815 5818 5822
5564 5565 5565 5565 5566 5567 5569 5570 5575 5584 5594 5604 5612 5621 5629 5639 5650 5656 5665 5674 5683 5691 5700 5710 5716 5722 5729 5736 5741 5747 5754 5759 5764 5768 5772 5778 5782 5788 5792 5796 5801 5805 5809 5812 5815
5564 5564 5564 5564 5564 5565 5566 5568 5571 5581 5589 5598 5604 5615 5625 5633 5642 5648 5658 5668 5675 5682 5691 5700 5708 5714 5722 5729 5734 5740 5746 5751 5756 5760 5763 5770 5776 5775 5785 5790 5793 5798 5801 5804 5806
5564 5565 5565 5565 5566 5566 5566 5568 5570 5574 5582 5592 5599 5608 5618 5628 5635 5643 5652 5661 5669 5677 5684 5693 5700 5708 5714 5721 5726 5732 5738 5743 5749 5752 5757 5763 5767 5770 5775 5783 5787 5790 5793 5795 5797
5566 5568 5567 5566 5567 5567 5567 5569 5571 5574 5581 5587 5594 5602 5611 5620 5629 5637 5644 5653 5663 5671 5679 5686 5694 5700 5707 5713 5719 5725 5730 5736 5740 5746 5752 5755 5760 5764 5768 5775 5779 5780 5783 5786 5787
5569 5571 5569 5569 5568 5569 5570 5570 5572 5576 5579 5586 5590 5596 5604 5613 5623 5630 5638 5648 5655 5664 5673 5679 5686 5692 5699 5705 5712 5717 5721 5729 5734 5738 5744 5748 5754 5757 5758 5763 5768 5771 5773 5775 5777
5572 5573 5572 5571 5571 5572 5573 5573 5574 5577 5580 5584 5587 5592 5599 5606 5615 5624 5632 5641 5649 5657 5666 5672 5679 5684 5691 5697 5703 5709 5717 5721 5725 5730 5736 5740 5746 5749 5753 5756 5757 5761 5763 5765 5767
5575 5574 5574 5573 5575 5575 5575 5574 5575 5577 5580 5583 5585 5590 5594 5600 5609 5617 5626 5635 5643 5651 5658 5666 5671 5679 5682 5690 5697 5701 5706 5713 5718 5722 5726 5733 5737 5742 5746 5749 5750 5751 5755 5756 5757
5576 5575 5575 5574 5575 5575 5576 5576 5577 5579 5580 5583 5585 5589 5591 5596 5603 5610 5620 5628 5636 5645 5653 5657 5663 5670 5677 5683 5690 5695 5699 5704 5708 5716 5721 5725 5729 5732 5738 5741 5744 5744 5746 5747 5749
5576 5576 5576 5574 5575 5575 5577 5578 5579 5580 5581 5583 5586 5588 5590 5593 5598 5605 5613 5623 5630 5639 5644 5651 5656 5662 5669 5676 5680 5685 5692 5696 5701 5707 5710 5715 5721 5724 5729 5731 5734 5736 5737 5738 5740
5577 5576 5576 5575 5575 5576 5577 5579 5580 5580 5582 5582 5585 5587 5589 5591 5594 5601 5608 5617 5626 5632 5639 5645 5652 5658 5665 5670 5676 5681 5686 5690 5694 5698 5702 5708 5712 5717 5719 5722 5725 5727 5728 5730 5731
5577 5578 5577 5576 5575 5576 5577 5578 5580 5580 5581 5582 5584 5587 5589 5591 5592 5596 5603 5612 5621 5628 5634 5640 5647 5653 5658 5663 5667 5672 5678 5682 5688 5693 5696 5701 5704 5707 5711 5715 5716 5716 5718 5721 5721
5578 5579 5579 5577 5577 5577 5578 5578 5579 5581 5581 5582 5584 5586 5588 5590 5592 5593 5601 5608 5617 5625 5630 5636 5643 5648 5652 5657 5662 5666 5671 5676 5681 5686 5689 5693 5697 5701 5703 5707 5708 5708 5709 5711 5712
5578 5579 5581 5578 5577 5578 5578 5579 5580 5580 5580 5584 5585 5586 5588 5589 5590 5593 5598 5607 5615 5622 5627 5633 5637 5642 5646 5651 5654 5660 5666 5669 5673 5677 5681 5686 5690 5692 5695 5697 5699 5700 5701 5702 5703